Location: Cahas Mountain Overlook
(37.0833°N, 80.1000°W)
Time: 18:49:08
(UTC-04:00)

Explorer 7 - Pass Details

Date: 14 February 2026
Orbit: 430 x 541 km, 50.2° (Epoch: 13 March)

Event Time Altitude Azimuth Distance (km) Brightness Sun altitude
Rises 00:51:44 0° 286° (WNW) 2,658 - -65.6°
Reaches altitude 10° 00:55:20 10° 252° (WSW) 1,785 - -65.5°
Maximum altitude 00:56:42 11° 233° (SW) 1,696 - -65.4°
Drops below altitude 10° 00:58:02 10° 213° (SSW) 1,786 - -65.4°
Sets 01:01:44 0° 179° (S) 2,688 - -65.2°
